Regional Weather Roundup
Issued by NWS

Home | Current Version | Previous Version | Text Only | Print | Product List | Glossary On
Versions: 1 2 3 4 5 6 7 8 9 10 11 12 13 14 15 16 17 18 19 20 21 22 23 24 25 26 27 28 29 30 31 32 33 34 35 36 37 38 39 40 41 42 43 44 45 46 47 48 49 50
193
ASUS44 KJAN 311410
RWRMS

MISSISSIPPI HOURLY WEATHER ROUNDUP
NATIONAL WEATHER SERVICE JACKSON MS
900 AM CDT TUE MAR 31 2015

NOTE: "FAIR: INDICATES FEW OR NO CLOUDS BELOW 12,000 FEET WITH NO
SIGNIFICANT WEATHER AND/OR OBSTRUCTIONS TO VISIBILITY.

MSZ001>002-007>008-010>013-018>021-025>028-034>036-311500-
NORTHWEST MISSISSIPPI

CITY           SKY/WX    TMP DP  RH WIND       PRES   REMARKS
CLARKSDALE     PTSUNNY   63  59  88 S5        30.04R
CLEVELAND      CLOUDY    65  63  91 SW10      30.04R
GREENWOOD      CLOUDY    66  59  78 SW9       30.05S
GREENVILLE     NOT AVBL
OLIVE BRANCH   PTSUNNY   63  57  82 SW7       30.03S
OXFORD         FAIR      63  55  77 S6        30.05S
TUNICA         CLOUDY    59  55  88 CALM      30.03S
$$

MSZ003>006-009-014>017-022>024-029>033-037>039-311500-
NORTHEAST MISSISSIPPI

CITY           SKY/WX    TMP DP  RH WIND       PRES   REMARKS
COLUMBUS AFB   PTSUNNY   60  56  85 VRB3      30.05F
CORINTH        PTSUNNY   57  50  77 SE5       30.02F
GOLDN TRIANGLE PTSUNNY   64  57  77 W6        30.06R
STARKVILLE     PTSUNNY   63  59  88 SW3       30.07S
TUPELO         MOSUNNY   60  51  72 CALM      30.04S
$$

MSZ040-058-311500-
CENTRAL MISSISSIPPI

CITY           SKY/WX    TMP DP  RH WIND       PRES   REMARKS
JACKSON INTL   PTSUNNY   65  61  87 SW6       30.10S
JACKSON HAWKNS PTSUNNY   66  61  84 SW9       30.10S
MERIDIAN KEY   SUNNY     65  59  81 SW8       30.11R
MERIDIAN NAS   MOSUNNY   66  59  78 SW10      30.09R
RAYMOND        FAIR      64  59  82 SW7       30.10S
VICKSBURG      CLOUDY    65  61  87 VRB6      30.10R
$$

MSZ059>079-311500-
SOUTH MISSISSIPPI

CITY           SKY/WX    TMP DP  RH WIND       PRES   REMARKS
BROOKHAVEN     PTSUNNY   64  63  94 SW6       30.14R
HATTIESBURG    SUNNY     68  61  78 W8        30.13R
MCCOMB         MOSUNNY   64  62  93 SW8       30.13R
NATCHEZ        CLOUDY    64  61  88 SW12      30.12S
PINE BELT      CLOUDY    61  57  88 SW3       30.14R
$$

MSZ080>082-311500-
COASTAL MISSISSIPPI

CITY           SKY/WX    TMP DP  RH WIND       PRES   REMARKS
BILOXI         SUNNY     72  66  81 VRB1      30.13R
PASCAGOULA     SUNNY     70  66  87 W6        30.14R
GULFPORT       SUNNY     70  64  81 W6        30.13R
$$



USA.gov is the U.S. government's official web portal to all federal, state and local government web resources and services.